Погода в Анджелесе

Филиппины     15°08′51″N   120°33′34″E
темп.,
°C
ветер,
м/с
пор.,
м/с
влажн.,
%
обл.,
%
осадки,
мм/ч
давл.,
гПа
погр.,
м
16 мая, вс
вс1623:00+25ю227814 0.0 101125
02:00+25зюз11825 0.0 101011
05:00+24ссз11865 0.0 101012
08:00+29в24625 0.0 1011813
11:00+35в45375 0.0 10092093
14:00+38вюв652912 0.0 10073006
17:00+35ю65395 0.0 10071731
20:00+29юв225751 0.1 1010132
17 мая, пн
пн1723:00+26юв11725 0.0 101112
02:00+25ссз11787 0.0 101011
05:00+24зсз118530 0.0 101011
08:00+29в24565 0.0 1011826
11:00+35в45355 0.0 10092057
14:00+38вюв76265 0.0 10072805
17:00+35юв76375 0.0 10071780
20:00+28ююв245144 0.0 1010145
18 мая, вт
вт1823:00+25ю11706 0.0 101118
02:00+24з117816 0.0 100912
05:00+24сз118058 0.0 101013
08:00+29всв345936 0.0 1011811
11:00+36в563577 0.0 10092252
14:00+38вюв762887 0.0 10062700
17:00+34вюв763798 0.0 10061567
20:00+28юв235725 0.0 1010111
19 мая, ср
ср1923:00+26сз01717 0.0 101111
02:00+25сз1176100 0.0 100913
05:00+24ссз1182100 0.0 100912
08:00+29в34606 0.0 1011956
11:00+36в563523 0.0 10092293
14:00+38вюв652763 0.0 10062815
17:00+35юв763317 0.0 10061965
20:00+28ююв2258100 0.0 100953
20 мая, чт
чт2023:00+26ююв117071 0.0 101020
02:00+25зюз1176100 0.0 100811
05:00+24юз008096 0.0 100911
08:00+29в225791 0.0 1010802
11:00+35в333546 0.0 10082060
14:00+38юв3427100 0.0 10053186
17:00+31з355598 0.1 1006390
20:00+27сз2279100 4.5 100976